Content
SEND FEEDBACK

Daily
Averages
Monthly
Summary
United States of America

KENT CITY, MICHIGAN


Home > North America > United States > Michigan
Elevation: 840 feet     Latitude: 43 12N     Longitude: 085 46W

WEATHER
 
SELECT A DAY
Number of Records: 158,333;   Date Range: 6/5/08 - 12/27/14
 
SHARE

PRINT THIS DATA

[ ← Previous Day ]
WEATHER ALMANAC - FEBRUARY 13, 2013
[ Next Day → ]
[ °C ]   °F
Weather ElementAverageHighLow
Temperature28.7 °F34.2 °F (2:55 pm)19.6 °F (7:15 am)
Dewpoint26.6 °F31.5 °F (10:14 pm)19 °F (7:15 am)
Humidity92 %100 % (4:54 am)82 % (2:55 pm)
Barometer29.75 in29.87 in (12:35 am)29.70 in (2:34 pm)
Wind Speed5 mph12.7 mph (12:15 pm)
Weather ElementAverage
Visibility5.9 mi
Wind DirectionSE (134.1 °)

Weather ElementTotal
Precipitation---
Heating Degree Days38.1 (Base 65)
Averaged from 71 records on February 13, 2013
WEATHER CONDITIONS BREAKOUT
WIND DIRECTION BREAKOUT
WEATHER BY HOUR - FEBRUARY 13, 2013
[ °C ]   °F
Local TimeTemperatureDewpointHumidityBarometerVisibilityWind DirectionWind SpeedGust SpeedPrecipitationEventsConditions
12:35 AM26.8 °F22.6 °F84 %29.87 in10.0 miSSW (200°)5.8 mphOvercast
12:54 AM25.7 °F21.6 °F84 %29.87 in10.0 miSouth (190°)5.8 mphMostly Cloudy
1:15 AM25.3 °F21.7 °F86 %29.87 in10.0 miSSE (160°)4.6 mphClear
1:35 AM24.6 °F21.2 °F87 %29.87 in10.0 miSSE (160°)3.5 mphScattered Clouds
1:54 AM24.8 °F22.1 °F89 %29.86 in10.0 miSSE (160°)3.5 mphMostly Cloudy
2:15 AM25.7 °F22.5 °F88 %29.85 in10.0 miSSE (160°)3.5 mphOvercast
2:34 AM25.0 °F22.3 °F89 %29.85 in10.0 miSouth (170°)3.5 mphOvercast
2:55 AM25.7 °F22.6 °F88 %29.85 in10.0 miSSE (160°)4.6 mphOvercast
3:15 AM25.0 °F21.9 °F88 %29.85 in10.0 miSouth (170°)4.6 mphOvercast
3:34 AM24.6 °F23.2 °F94 %29.84 in10.0 miSSE (160°)3.5 mphScattered Clouds
3:55 AM24.3 °F23.0 °F95 %29.83 in7.0 miCalmClear
4:15 AM21.7 °F21.2 °F98 %29.82 in7.0 miCalmClear
4:35 AM21.4 °F21.0 °F99 %29.81 in4.0 miCalmClear
4:54 AM22.1 °F22.1 °F100 %29.81 in5.0 miCalmClear
5:15 AM22.5 °F22.3 °F99 %29.80 in5.0 miCalmClear
5:32 AM21.0 °F20.5 °F98 %29.80 in4.0 miCalmClear
5:55 AM21.7 °F21.6 °F99 %29.79 in4.0 miCalmClear
6:14 AM21.4 °F21.2 °F99 %29.79 in4.0 miCalmClear
6:35 AM19.8 °F19.2 °F98 %29.79 in2.0 miCalmClear
6:53 AM20.1 °F19.6 °F98 %29.78 in3.0 miCalmClear
7:15 AM19.6 °F19.0 °F98 %29.78 in2.5 miSE (140°)3.5 mphScattered Clouds
7:34 AM20.1 °F19.8 °F99 %29.77 in3.0 miCalmMostly Cloudy
7:55 AM21.0 °F20.7 °F99 %29.77 in2.5 miCalmOvercast
8:15 AM21.7 °F21.4 °F99 %29.77 in3.0 miSE (140°)3.5 mphOvercast
8:34 AM24.1 °F23.9 °F99 %29.76 in3.0 miSSE (160°)3.5 mphOvercast
8:55 AM25.3 °F25.2 °F99 %29.76 in3.0 miSSE (160°)4.6 mphOvercast
9:14 AM26.1 °F25.7 °F99 %29.76 in3.0 miSSE (150°)3.5 mphOvercast
9:35 AM26.4 °F26.4 °F100 %29.75 in3.0 miSouth (170°)8.1 mphOvercast
9:55 AM27.1 °F27.1 °F100 %29.75 in3.0 miSouth (180°)8.1 mphOvercast
10:15 AM27.5 °F27.5 °F100 %29.75 in4.0 miSouth (170°)6.9 mphOvercast
10:35 AM28.6 °F28.4 °F99 %29.75 in4.0 miSSE (160°)8.1 mphOvercast
10:54 AM29.1 °F28.2 °F96 %29.75 in5.0 miSouth (170°)6.9 mphOvercast
11:15 AM30.4 °F27.9 °F90 %29.75 in5.0 miSouth (170°)9.2 mphOvercast
11:35 AM31.1 °F28.4 °F90 %29.74 in5.0 miSouth (170°)9.2 mphOvercast
11:54 AM31.8 °F28.4 °F87 %29.74 in5.0 miSouth (170°)9.2 mphOvercast
12:15 PM31.8 °F28.4 °F87 %29.74 in5.0 miSouth (170°)12.7 mphOvercast
12:35 PM32.0 °F28.0 °F85 %29.73 in7.0 miSouth (180°)10.4 mphOvercast
12:54 PM32.0 °F27.9 °F85 %29.73 in7.0 miSouth (170°)8.1 mphOvercast
1:15 PM32.4 °F28.2 °F85 %29.72 in7.0 miSouth (180°)10.4 mphOvercast
1:34 PM32.9 °F28.4 °F84 %29.72 in7.0 miSouth (170°)9.2 mphOvercast
1:55 PM33.3 °F28.9 °F84 %29.71 in7.0 miSouth (170°)9.2 mphOvercast
2:15 PM33.8 °F29.5 °F84 %29.71 in7.0 miSouth (190°)10.4 mphOvercast
2:34 PM34.0 °F29.5 °F84 %29.70 in7.0 miSouth (180°)12.7 mphOvercast
2:55 PM34.2 °F29.3 °F82 %29.70 in7.0 miSouth (180°)12.7 mphOvercast
3:14 PM34.0 °F29.5 °F84 %29.70 in7.0 miSouth (190°)11.5 mphOvercast
3:35 PM34.0 °F29.3 °F83 %29.70 in7.0 miSSW (200°)9.2 mphOvercast
3:55 PM34.0 °F29.8 °F85 %29.70 in7.0 miSouth (180°)9.2 mphOvercast
4:14 PM34.0 °F29.8 °F85 %29.70 in7.0 miSouth (170°)10.4 mphOvercast
4:35 PM33.8 °F29.8 °F85 %29.70 in7.0 miSouth (180°)8.1 mphOvercast
4:55 PM33.8 °F30.0 °F86 %29.70 in7.0 miSouth (180°)4.6 mphOvercast
5:14 PM33.8 °F30.0 °F86 %29.70 in7.0 miSouth (190°)5.8 mphOvercast
5:35 PM34.0 °F30.0 °F85 %29.70 in7.0 miSouth (180°)4.6 mphOvercast
5:54 PM33.4 °F30.2 °F88 %29.70 in5.0 miSouth (180°)5.8 mphOvercast
6:15 PM32.7 °F30.6 °F92 %29.70 in5.0 miSouth (190°)4.6 mphOvercast
6:35 PM32.9 °F30.2 °F90 %29.71 in7.0 miSouth (190°)3.5 mphOvercast
6:54 PM32.9 °F30.2 °F90 %29.71 in7.0 miCalmOvercast
7:14 PM32.9 °F30.0 °F89 %29.71 in7.0 miSE (140°)3.5 mphOvercast
7:35 PM32.9 °F30.4 °F90 %29.71 in7.0 miCalmOvercast
7:54 PM32.9 °F30.2 °F90 %29.71 in7.0 miCalmOvercast
8:15 PM32.9 °F30.6 °F91 %29.71 in7.0 miSSE (150°)3.5 mphOvercast
8:35 PM32.9 °F30.7 °F92 %29.71 in7.0 miSSE (150°)3.5 mphOvercast
8:54 PM32.5 °F30.9 °F94 %29.71 in5.0 miSouth (170°)3.5 mphOvercast
9:15 PM32.2 °F31.1 °F96 %29.71 in5.0 miSSE (160°)3.5 mphOvercast
9:35 PM31.8 °F30.6 °F95 %29.71 in5.0 miSouth (170°)3.5 mphOvercast
9:55 PM32.0 °F31.1 °F96 %29.71 in5.0 miSSE (150°)3.5 mphOvercast
10:14 PM32.0 °F31.5 °F98 %29.70 in5.0 miSSE (150°)4.6 mphOvercast
10:34 PM32.0 °F31.1 °F96 %29.70 in4.0 miSSE (160°)4.6 mphOvercast
10:55 PM31.5 °F30.9 °F98 %29.70 in4.0 miSouth (170°)5.8 mphOvercast
11:13 PM31.5 °F30.7 °F97 %29.70 in4.0 miSouth (170°)5.8 mphOvercast
11:35 PM31.1 °F30.2 °F96 %29.70 in3.0 miSouth (170°)4.6 mphMostly Cloudy
11:55 PM29.7 °F29.3 °F99 %29.70 in3.0 miSouth (190°)4.6 mphMostly Cloudy
Hourly data recorded from KFFX, located miles away from Kent City, Michigan







STORIES FROM OUR PARTNERS